User: anonymous   Login
Location: ?
(35.4554°N, 139.3092°E)
Time: 04:29:21
(UTC+00:00)
Language:

ASTRO E2 - Orbit

View from above orbital plane
View from above orbital plane
View from above satellite
View from above satellite

Ground track
Ground track

The orbit data is extracted from the following two-line orbital elements,

1 28773U 05025A   21171.26221820  .00000825  00000-0  34843-4 0  9995
2 28773  31.3803 143.6243 0004518 310.2618  49.7634 15.18426230879895
Epoch (UTC): 20 June 2021 06:17:35
Eccentricity: 0.0004518
inclination: 31.3803°
perigee height: 507 km
apogee height: 514 km
right ascension of ascending node: 143.6243°
argument of perigee: 310.2618°
revolutions per day: 15.18426230
mean anomaly at epoch: 49.7634°
orbit number at epoch: 87989

The dashed part of the orbit path shows where the satellite is in the earth's shadow,  

DLR